421P/McNaught (2021)

Japanese version
Home page
Updated on January 20, 2022

---------------------------------------------------------------------

* Profile

Designation 421P/2020 H10
Recovery Date April 20 and 26, 2020
Magnitude 21.7 mag and 21.5 mag
Recoverer Pan-STARRS 1 telescope (Haleakala), Mt. Lemmon Survey

* Orbital Elements

Epoch 2022 Jan. 21.0 TT = JDT 2459600.5
T 2021 Jan. 25.81878 TT                                 Rudenko
q   1.6468652            (2000.0)            P               Q
n   0.08619888     Peri.  259.83047     +0.69681495     +0.70265184
a   5.0753770      Node    55.34857     -0.57027627     +0.66449564
e   0.6755186      Incl.   10.07987     -0.43501022     +0.25441291
P  11.4
From 124 observations 2009 Oct. 11-2021 Oct. 31, mean residual 0".7.

* Magnitudes Graph

        m1 = 14.0 + 5 log d + 10.0 log r

---------------------------------------------------------------------

The orbital elements are published on M.P.E.C. 2021-W31.
The magnitudes graphs are made with Comet for Windows.

---------------------------------------------------------------------

Copyright(C) Seiichi Yoshida (comet@aerith.net). All rights reserved.